When you browse on this site, cookies collect data to enhance your experience and personalize the content and advertising you see.
Visit our Privacy Policy to learn more. By continuing to use the site, you agree to this use of cookies and data.
  • In Österreich
  • Länderverzeichnis
  • Für 7 Tage
  • Wassertemperatur
  • Wetterkarte
  • News
  • Widgets
  • user-avatar
    Anmelden

    Stündliche Wetter Benguela

    Heute, 12 Dezember, Donnerstag

    Zeit Temperatur Niederschläge Wind Luftdruck Luftfeuchtigkeit
    00:00 +26°C° 0 mm 2 m/S 759 mmHg 79%
    01:00 +25°C° 0 mm 2 m/S 759 mmHg 81%
    02:00 +25°C° 0 mm 1 m/S 758 mmHg 81%
    03:00 +25°C° 0 mm 1 m/S 758 mmHg 82%
    04:00 +24°C° 0 mm 1 m/S 757 mmHg 82%
    05:00 +25°C° 0 mm 1 m/S 758 mmHg 78%
    06:00 +26°C° 0 mm 1 m/S 758 mmHg 73%
    07:00 +27°C° 0 mm 1 m/S 759 mmHg 69%
    08:00 +29°C° 0 mm 1 m/S 759 mmHg 61%
    09:00 +31°C° 0 mm 2 m/S 759 mmHg 53%
    10:00 +34°C° 0 mm 2 m/S 758 mmHg 44%
    11:00 +34°C° 0 mm 3 m/S 758 mmHg 46%
    12:00 +34°C° 0 mm 3 m/S 757 mmHg 48%
    13:00 +35°C° 0 mm 4 m/S 757 mmHg 50%
    14:00 +34°C° 0 mm 4 m/S 756 mmHg 51%
    15:00 +34°C° 0 mm 5 m/S 756 mmHg 53%
    16:00 +33°C° 0 mm 5 m/S 756 mmHg 54%
    17:00 +32°C° 0 mm 4 m/S 756 mmHg 60%
    18:00 +29°C° 0 mm 4 m/S 757 mmHg 66%
    19:00 +27°C° 0 mm 3 m/S 758 mmHg 73%
    20:00 +27°C° 0 mm 3 m/S 758 mmHg 74%
    21:00 +27°C° 0 mm 2 m/S 758 mmHg 76%
    22:00 +26°C° 0 mm 2 m/S 759 mmHg 77%
    23:00 +26°C° 0 mm 2 m/S 759 mmHg 78%

    Morgen, 13 Dezember, Freitag

    Zeit Temperatur Niederschläge Wind Luftdruck Luftfeuchtigkeit
    00:00 +26°C° 0 mm 2 m/S 759 mmHg 80%
    01:00 +25°C° 0 mm 1 m/S 758 mmHg 81%
    02:00 +25°C° 0 mm 1 m/S 758 mmHg 82%
    03:00 +25°C° 0 mm 1 m/S 758 mmHg 84%
    04:00 +25°C° 0 mm 1 m/S 758 mmHg 85%
    05:00 +25°C° 0 mm 1 m/S 758 mmHg 82%
    06:00 +26°C° 0 mm 1 m/S 759 mmHg 79%
    07:00 +26°C° 0 mm 1 m/S 759 mmHg 75%
    08:00 +28°C° 0 mm 1 m/S 759 mmHg 68%
    09:00 +30°C° 0 mm 2 m/S 759 mmHg 60%
    10:00 +32°C° 0 mm 2 m/S 759 mmHg 52%
    11:00 +33°C° 0 mm 3 m/S 758 mmHg 51%
    12:00 +34°C° 0 mm 4 m/S 757 mmHg 50%
    13:00 +35°C° 0 mm 4 m/S 756 mmHg 49%
    14:00 +34°C° 0 mm 5 m/S 756 mmHg 49%
    15:00 +34°C° 0 mm 5 m/S 756 mmHg 50%
    16:00 +34°C° 0 mm 5 m/S 755 mmHg 50%
    17:00 +32°C° 0 mm 5 m/S 756 mmHg 57%
    18:00 +30°C° 0 mm 5 m/S 756 mmHg 63%
    19:00 +28°C° 0 mm 4 m/S 757 mmHg 70%
    20:00 +28°C° 0 mm 4 m/S 758 mmHg 72%
    21:00 +27°C° 0 mm 3 m/S 758 mmHg 74%
    22:00 +27°C° 0 mm 2 m/S 759 mmHg 75%
    23:00 +27°C° 0 mm 2 m/S 758 mmHg 77%

    übermorgen, 14 Dezember, Samstag

    Zeit Temperatur Niederschläge Wind Luftdruck Luftfeuchtigkeit
    00:00 +26°C° 0 mm 2 m/S 758 mmHg 79%
    01:00 +26°C° 0 mm 2 m/S 758 mmHg 81%
    02:00 +26°C° 0 mm 1 m/S 758 mmHg 82%
    03:00 +26°C° 0 mm 1 m/S 758 mmHg 83%
    04:00 +25°C° 0 mm 1 m/S 757 mmHg 85%
    05:00 +26°C° 0 mm 2 m/S 758 mmHg 83%
    06:00 +27°C° 0 mm 2 m/S 758 mmHg 81%
    07:00 +27°C° 0 mm 3 m/S 759 mmHg 79%
    08:00 +28°C° 0 mm 3 m/S 759 mmHg 73%
    09:00 +29°C° 0 mm 3 m/S 759 mmHg 68%
    10:00 +31°C° 0 mm 3 m/S 759 mmHg 62%
    11:00 +32°C° 0 mm 4 m/S 758 mmHg 59%
    12:00 +33°C° 0 mm 4 m/S 758 mmHg 56%
    13:00 +33°C° 0 mm 4 m/S 757 mmHg 53%
    14:00 +33°C° 0 mm 4 m/S 757 mmHg 55%
    15:00 +32°C° 0 mm 4 m/S 756 mmHg 57%
    16:00 +32°C° 0 mm 4 m/S 756 mmHg 59%
    17:00 +30°C° 0 mm 3 m/S 757 mmHg 63%
    18:00 +29°C° 0 mm 3 m/S 757 mmHg 68%
    19:00 +28°C° 0 mm 2 m/S 758 mmHg 73%
    20:00 +28°C° 0.1 mm 2 m/S 759 mmHg 73%
    21:00 +28°C° 0.1 mm 1 m/S 759 mmHg 74%
    22:00 +28°C° 0.1 mm 1 m/S 759 mmHg 74%
    23:00 +28°C° 0.1 mm 1 m/S 759 mmHg 75%

    15 Dezember, Sonntag

    Zeit Temperatur Niederschläge Wind Luftdruck Luftfeuchtigkeit
    00:00 +28°C° 0.1 mm 1 m/S 759 mmHg 75%
    01:00 +28°C° 0.1 mm 1 m/S 758 mmHg 76%
    02:00 +27°C° 0 mm 1 m/S 758 mmHg 77%
    03:00 +27°C° 0 mm 1 m/S 758 mmHg 77%
    04:00 +27°C° 0 mm 1 m/S 758 mmHg 78%
    05:00 +27°C° 0.2 mm 1 m/S 758 mmHg 77%
    06:00 +28°C° 0.2 mm 1 m/S 758 mmHg 75%
    07:00 +28°C° 0.2 mm 1 m/S 759 mmHg 74%
    08:00 +30°C° 0 mm 1 m/S 759 mmHg 66%
    09:00 +32°C° 0 mm 2 m/S 758 mmHg 58%
    10:00 +35°C° 0 mm 2 m/S 758 mmHg 50%
    11:00 +35°C° 0 mm 3 m/S 758 mmHg 51%
    12:00 +35°C° 0 mm 4 m/S 757 mmHg 52%
    13:00 +35°C° 0 mm 4 m/S 756 mmHg 52%
    14:00 +35°C° 0 mm 5 m/S 756 mmHg 55%
    15:00 +34°C° 0 mm 5 m/S 755 mmHg 57%
    16:00 +33°C° 0 mm 5 m/S 755 mmHg 59%
    17:00 +32°C° 0.2 mm 4 m/S 755 mmHg 64%
    18:00 +30°C° 0.2 mm 3 m/S 756 mmHg 70%
    19:00 +28°C° 0.2 mm 3 m/S 756 mmHg 76%
    20:00 +28°C° 0.6 mm 2 m/S 757 mmHg 76%
    21:00 +28°C° 0.6 mm 2 m/S 757 mmHg 76%
    22:00 +28°C° 0.6 mm 2 m/S 758 mmHg 75%
    23:00 +28°C° 0.7 mm 2 m/S 758 mmHg 76%

    16 Dezember, Montag

    Zeit Temperatur Niederschläge Wind Luftdruck Luftfeuchtigkeit
    00:00 +28°C° 0.7 mm 1 m/S 757 mmHg 76%
    01:00 +28°C° 0.7 mm 1 m/S 757 mmHg 76%
    02:00 +28°C° 0.1 mm 1 m/S 757 mmHg 77%
    03:00 +28°C° 0.1 mm 1 m/S 756 mmHg 77%
    04:00 +28°C° 0.1 mm 1 m/S 756 mmHg 78%
    05:00 +28°C° 0 mm 1 m/S 756 mmHg 77%
    06:00 +29°C° 0 mm 1 m/S 757 mmHg 75%
    07:00 +29°C° 0 mm 1 m/S 757 mmHg 73%
    08:00 +30°C° 0 mm 1 m/S 757 mmHg 68%
    09:00 +32°C° 0 mm 2 m/S 757 mmHg 62%
    10:00 +34°C° 0 mm 2 m/S 757 mmHg 57%
    11:00 +34°C° 0 mm 3 m/S 756 mmHg 56%
    12:00 +35°C° 0 mm 3 m/S 756 mmHg 55%
    13:00 +35°C° 0 mm 4 m/S 755 mmHg 54%
    14:00 +35°C° 0 mm 4 m/S 755 mmHg 55%
    15:00 +34°C° 0 mm 4 m/S 754 mmHg 57%
    16:00 +34°C° 0 mm 5 m/S 754 mmHg 58%
    17:00 +33°C° 0 mm 4 m/S 755 mmHg 64%
    18:00 +30°C° 0 mm 4 m/S 755 mmHg 70%
    19:00 +29°C° 0 mm 4 m/S 756 mmHg 75%
    20:00 +29°C° 0.1 mm 3 m/S 756 mmHg 76%
    21:00 +29°C° 0.1 mm 3 m/S 757 mmHg 76%
    22:00 +29°C° 0.1 mm 2 m/S 757 mmHg 77%
    23:00 +29°C° 0.1 mm 2 m/S 757 mmHg 77%

    17 Dezember, Dienstag

    Zeit Temperatur Niederschläge Wind Luftdruck Luftfeuchtigkeit
    00:00 +29°C° 0.1 mm 2 m/S 756 mmHg 78%
    01:00 +28°C° 0.1 mm 2 m/S 756 mmHg 79%
    02:00 +28°C° 0 mm 2 m/S 756 mmHg 80%
    03:00 +28°C° 0 mm 2 m/S 756 mmHg 81%
    04:00 +28°C° 0 mm 2 m/S 756 mmHg 83%
    05:00 +28°C° 0.1 mm 2 m/S 756 mmHg 82%
    06:00 +28°C° 0.1 mm 2 m/S 756 mmHg 82%
    07:00 +28°C° 0.1 mm 1 m/S 757 mmHg 81%
    08:00 +29°C° 0 mm 1 m/S 757 mmHg 77%
    09:00 +30°C° 0 mm 1 m/S 757 mmHg 72%
    10:00 +31°C° 0 mm 1 m/S 757 mmHg 67%
    11:00 +32°C° 0 mm 1 m/S 756 mmHg 64%
    12:00 +34°C° 0 mm 2 m/S 756 mmHg 60%
    13:00 +34°C° 0 mm 3 m/S 755 mmHg 57%
    14:00 +34°C° 0 mm 3 m/S 755 mmHg 57%
    15:00 +34°C° 0 mm 4 m/S 754 mmHg 57%
    16:00 +34°C° 0 mm 5 m/S 754 mmHg 56%
    17:00 +33°C° 0 mm 4 m/S 754 mmHg 64%
    18:00 +30°C° 0 mm 4 m/S 755 mmHg 71%
    19:00 +29°C° 0 mm 4 m/S 756 mmHg 79%
    20:00 +29°C° 0 mm 3 m/S 756 mmHg 80%
    21:00 +29°C° 0 mm 2 m/S 756 mmHg 80%
    22:00 +28°C° 0 mm 2 m/S 757 mmHg 81%
    23:00 +28°C° 0.1 mm 2 m/S 757 mmHg 82%
    Mehr zeigen